Theta_e
327 330 331 333 335 335 334 334 335 337 334 330 326 325 323 325 326 326 332 329 325 329 325 323 323 323 319 318 321 321 320 320 321 318 318 320 322 323 328 330 334 335 338
325 328 330 332 332 332 332 333 334 335 334 329 332 330 327 325 325 326 327 323 326 325 322 322 320 320 320 320 319 320 315 316 319 315 315 311 315 320 325 325 329 332 340
324 327 329 329 329 329 329 330 333 334 334 332 327 327 324 324 321 320 319 323 324 324 322 321 322 319 317 315 316 317 314 312 316 317 313 308 307 315 319 322 327 332 334
325 326 327 325 327 324 326 330 332 333 329 332 325 324 319 316 318 318 319 321 323 320 322 319 318 318 318 316 315 315 315 314 311 315 316 317 316 310 309 318 324 330 330
323 323 324 326 323 323 325 329 332 332 331 330 327 321 320 318 318 317 317 319 319 317 318 318 317 316 316 316 316 315 315 316 314 314 314 314 315 316 313 310 316 324 328
322 323 321 322 321 322 323 327 330 330 328 326 326 325 321 319 315 316 314 313 314 315 316 316 315 316 315 315 315 316 316 316 315 315 315 313 312 311 312 311 314 317 320
320 320 320 319 321 322 320 319 321 324 323 325 325 323 322 320 318 315 312 313 311 311 312 313 314 315 315 315 315 315 315 315 314 313 313 315 315 316 315 314 313 314 319
318 317 318 318 318 320 321 321 322 322 323 323 322 323 322 316 314 314 314 312 311 311 313 312 313 314 314 315 314 313 313 314 312 312 313 313 313 315 315 314 312 310 314
317 317 318 314 311 316 314 318 317 318 320 317 319 319 318 317 314 315 313 312 312 312 311 312 311 312 312 312 311 309 311 312 312 311 311 311 312 314 316 316 314 312 307
314 315 314 316 319 317 319 323 321 316 319 317 314 314 315 314 315 313 311 311 312 312 310 311 310 310 309 308 307 306 309 309 310 310 309 309 310 312 314 316 316 315 312
312 313 314 316 314 315 317 318 318 317 316 316 313 313 313 313 313 311 312 312 311 310 309 308 307 307 306 307 306 306 306 306 307 308 307 308 309 309 312 313 315 314 314
311 311 312 313 314 313 314 314 316 315 313 312 311 312 312 311 310 310 311 311 309 308 308 307 306 306 307 307 307 305 305 305 304 306 305 306 308 308 309 310 311 313 315
310 311 311 311 311 312 312 311 310 309 309 310 309 310 310 308 309 309 310 310 308 307 307 306 306 306 308 307 307 306 306 306 304 305 305 306 307 307 309 310 310 311 313
310 310 309 308 309 309 307 308 309 308 307 308 307 307 307 309 308 308 309 309 308 306 305 307 307 308 307 307 306 307 305 304 305 305 306 305 305 304 304 308 306 309 310
308 307 306 307 305 304 304 304 305 307 307 306 305 305 306 306 308 309 310 310 309 309 310 309 309 309 309 304 305 306 304 304 303 303 303 304 307 306 305 303 302 303 307
306 305 304 303 302 302 301 301 303 303 306 304 303 305 306 308 308 309 309 310 310 311 311 311 310 309 306 301 303 305 304 304 302 301 302 303 304 304 304 303 305 303 301
304 303 302 301 302 300 301 300 301 303 304 303 305 306 307 307 309 309 309 309 310 310 310 310 311 309 307 300 300 305 306 304 303 304 303 303 304 302 302 303 303 304 303
303 302 301 300 301 302 302 301 302 302 304 305 306 307 307 307 309 309 309 311 312 310 311 310 310 310 304 300 299 302 306 305 306 304 303 305 302 300 299 301 301 301 303
303 302 301 300 301 301 301 302 303 304 305 305 306 307 308 307 308 309 309 311 310 311 311 310 310 309 304 298 298 302 306 306 306 302 301 301 300 297 298 303 301 300 301
302 301 300 300 301 302 303 303 303 304 305 305 307 308 309 309 308 309 310 311 311 310 311 310 310 305 307 297 298 300 308 305 305 304 302 299 297 296 296 303 302 298 300
301 300 300 300 302 305 305 304 305 305 307 308 308 309 310 310 310 310 310 310 310 309 310 309 309 307 303 303 297 297 306 304 303 302 300 298 296 295 296 298 299 299 301
299 300 300 302 304 306 306 305 305 308 309 308 308 307 310 308 309 309 309 309 309 308 307 308 307 307 308 299 298 297 297 300 301 301 301 298 295 295 295 298 296 297 301
298 300 301 302 305 306 307 304 307 308 308 306 308 308 310 308 310 308 306 303 304 304 303 303 301 300 302 304 300 298 297 299 300 300 298 296 296 296 297 296 297 299 301
299 301 302 303 303 304 305 307 307 307 307 306 307 307 307 307 307 305 305 302 301 301 300 299 298 298 299 300 300 301 303 300 301 301 299 298 297 297 298 299 300 301 301
300 302 303 303 303 305 305 307 308 308 305 305 306 305 306 307 307 301 300 302 299 297 298 298 298 296 295 295 294 295 298 299 297 299 298 296 296 296 296 298 299 300 302
302 303 304 304 305 305 305 307 307 306 304 304 303 303 305 307 307 302 300 294 295 294 293 293 293 297 294 293 293 294 293 294 295 296 295 294 295 295 295 297 298 300 301
Wind_Speed
16 13 11 10 10 7 6 4 6 5 5 5 5 5 6 6 6 6 7 9 10 7 8 7 9 7 9 11 10 11 12 10 10 10 12 11 12 14 11 12 13 14 5
16 14 11 8 9 7 4 4 5 6 4 6 4 4 5 7 7 6 9 13 8 9 9 9 10 10 9 10 10 7 9 9 9 10 11 11 13 11 10 11 12 15 6
15 12 11 8 8 8 4 5 5 5 6 6 6 6 7 6 7 11 11 8 13 10 12 12 8 9 9 10 11 9 10 11 9 11 8 8 9 13 10 14 12 11 5
11 9 10 9 4 5 4 4 5 3 6 6 7 8 7 9 9 10 10 11 12 14 9 9 9 9 8 10 9 10 9 9 10 9 9 9 10 7 14 8 9 8 6
9 8 6 7 8 3 4 4 5 4 5 6 7 7 8 8 9 10 14 11 10 13 13 14 13 11 9 10 12 11 9 8 8 8 7 9 9 9 6 12 11 8 4
8 6 9 8 1 6 8 3 3 5 7 6 5 5 7 8 10 10 9 9 10 9 11 12 11 10 10 11 10 10 11 9 9 7 7 6 5 6 7 7 11 10 2
6 6 5 7 8 2 8 5 6 5 4 2 3 6 6 8 7 10 9 10 8 8 9 12 12 9 10 10 10 9 9 9 8 7 6 6 6 6 6 6 8 6 1
6 5 6 5 8 7 7 8 6 4 5 3 5 5 7 7 7 9 8 7 7 8 10 10 12 10 10 11 9 7 7 9 5 8 7 7 6 6 7 4 6 5 2
4 8 9 16 13 6 6 6 8 7 3 5 6 8 8 8 8 8 7 6 9 7 11 10 12 10 11 11 10 7 9 8 8 8 7 7 7 6 7 4 3 4 3
8 7 9 2 5 7 6 7 8 7 6 8 9 10 11 10 8 6 8 10 9 8 10 11 10 9 8 8 8 7 9 9 7 6 8 5 6 7 6 6 1 2 3
9 10 11 11 14 6 7 9 10 9 9 9 11 11 10 9 7 8 9 8 8 8 9 8 8 8 8 8 8 9 8 10 9 8 9 8 6 5 5 5 4 3 2
13 14 14 14 15 17 13 12 11 10 11 12 11 10 10 9 8 9 9 9 8 8 7 8 9 9 6 8 7 8 8 8 8 8 8 8 7 7 5 5 6 4 4
14 13 15 15 15 15 14 13 13 12 11 12 11 10 9 9 10 9 9 8 8 9 8 8 8 7 6 6 7 5 9 6 7 8 8 7 8 7 7 6 5 3 1
14 14 15 16 16 17 17 18 13 12 11 11 10 10 10 10 9 11 8 7 6 8 8 8 8 4 6 6 8 8 6 5 5 7 5 5 7 8 8 5 8 6 4
18 18 17 17 18 17 15 15 15 12 11 11 10 8 9 9 10 6 9 7 8 7 7 8 6 2 3 6 7 6 6 6 6 6 7 8 9 14 13 7 8 8 5
17 19 20 19 17 16 15 15 11 10 11 10 10 8 8 9 8 10 9 8 7 6 5 4 3 4 5 7 6 5 4 5 5 5 5 4 10 11 13 14 13 10 6
16 17 16 14 12 11 11 9 10 10 9 9 8 8 9 9 9 6 6 6 7 7 5 5 4 6 7 9 7 4 2 3 3 4 4 5 5 8 6 8 9 9 11
13 13 11 12 12 11 10 9 9 7 9 8 8 8 9 7 7 7 8 8 6 6 5 5 5 5 7 11 10 6 4 2 3 6 6 5 8 11 9 4 4 6 6
11 9 10 10 9 10 9 9 8 8 8 9 8 7 7 8 7 8 7 7 6 6 5 5 6 6 8 12 12 10 4 3 6 6 9 10 9 15 17 2 4 7 8
12 11 10 10 9 8 8 7 7 9 9 8 6 8 10 6 7 8 7 7 7 6 5 5 5 9 7 12 14 13 5 1 3 6 7 15 11 13 16 10 9 7 8
11 9 8 8 8 6 6 9 7 6 7 6 6 6 5 6 7 7 7 7 6 6 6 5 4 6 6 6 11 14 7 6 4 6 6 6 12 13 13 12 7 5 6
9 8 8 5 5 8 7 7 6 8 6 4 5 6 6 7 7 7 6 6 6 6 7 5 4 3 5 6 8 9 10 12 8 5 6 4 9 11 12 9 9 12 8
6 6 5 7 8 6 7 6 6 6 6 9 5 5 4 9 5 7 9 10 11 8 8 7 8 6 5 7 9 8 9 9 6 5 5 9 8 9 7 13 12 10 7
5 6 6 7 5 6 7 5 8 11 12 11 11 8 7 7 8 9 8 8 9 9 9 9 9 9 8 8 8 8 7 7 3 3 5 7 8 9 7 7 8 7 6
4 4 8 6 7 8 3 5 11 11 9 8 8 7 4 5 6 9 7 7 8 8 8 8 6 5 6 6 7 6 6 5 7 7 6 5 5 6 6 6 6 5 6
1 4 6 7 8 6 7 9 8 4 5 6 4 6 6 6 5 5 4 9 7 11 10 9 7 4 7 9 8 10 9 12 11 6 5 6 5 6 5 6 5 6 8
Wind_Direction
141 143 140 137 130 102 109 59 88 40 0 34 5 2 359 353 335 326 317 2 331 349 351 328 334 323 318 305 295 303 308 314 305 308 301 298 296 292 292 278 276 275 240
144 146 142 155 126 126 97 99 65 52 18 27 332 10 352 332 313 313 353 329 328 338 327 325 317 316 315 316 309 325 314 306 303 304 306 308 310 291 326 314 313 306 244
144 154 155 149 159 124 136 98 68 45 60 22 10 4 343 322 336 345 315 338 330 333 326 316 334 330 313 312 314 301 292 301 305 293 293 303 295 319 313 311 304 320 316
140 174 146 135 195 119 147 117 102 66 38 35 10 4 343 337 334 325 323 322 332 311 344 327 322 311 335 316 317 312 304 299 292 289 286 290 301 305 308 317 316 314 345
187 136 187 143 115 120 212 218 126 88 64 39 15 355 348 331 326 317 316 317 332 329 343 343 350 331 319 313 302 301 300 290 281 281 289 304 297 290 287 308 324 332 355
115 150 96 95 163 247 234 143 57 85 70 37 7 340 328 327 316 318 324 330 336 335 335 330 320 313 315 304 304 302 295 291 286 281 285 284 291 299 302 307 310 309 37
158 165 216 205 216 179 70 55 62 46 27 358 332 332 326 306 325 337 330 337 324 324 327 325 318 314 308 310 316 312 306 313 310 304 294 298 293 283 290 287 302 313 355
54 56 270 313 320 34 50 5 7 1 333 358 347 323 322 8 344 337 336 314 322 318 315 320 315 320 335 327 335 325 334 318 326 318 327 316 306 306 296 307 316 315 318
191 21 14 55 66 344 336 286 285 273 337 355 324 6 2 345 342 0 319 322 319 311 321 327 311 337 345 328 350 328 316 324 339 332 329 325 315 314 297 267 293 327 315
359 2 88 43 247 244 324 352 335 15 13 3 11 360 348 350 5 337 323 323 308 327 324 322 329 332 332 332 334 328 326 320 331 322 317 314 325 312 308 300 238 321 315
346 339 339 346 50 10 347 11 1 15 8 357 5 357 3 351 344 328 318 312 322 333 330 327 329 328 325 321 316 316 317 337 333 339 333 330 325 332 331 327 333 294 338
348 347 354 19 15 25 7 4 355 353 2 1 3 359 350 335 335 322 324 336 340 329 316 336 317 297 321 311 327 327 326 321 329 327 322 331 330 318 321 333 328 44 34
346 0 9 6 2 6 14 12 14 2 344 358 349 0 340 331 334 328 312 340 334 311 324 304 294 329 311 307 304 309 307 329 340 327 321 323 329 1 354 354 354 13 47
20 13 8 1 1 12 3 356 358 348 356 343 347 345 330 326 317 304 322 327 320 311 313 295 311 314 320 350 351 3 20 4 344 344 1 33 25 22 356 358 0 356 30
10 5 5 3 358 354 347 344 342 354 355 342 341 338 322 312 296 310 305 298 302 294 304 314 311 326 316 22 3 25 4 358 10 17 19 16 31 35 26 23 13 359 12
358 5 5 356 351 346 346 340 342 335 337 334 324 327 302 291 305 299 295 304 296 309 307 341 350 19 43 357 3 19 358 18 22 13 1 2 32 20 21 22 30 34 0
11 7 355 351 347 337 350 332 326 316 331 323 301 301 298 305 306 331 322 330 338 327 334 358 10 63 34 0 331 32 8 353 354 353 351 10 14 8 356 359 6 26 18
15 2 356 342 337 333 341 325 313 311 306 303 304 317 334 344 341 338 346 348 351 346 357 33 45 43 43 0 358 326 218 141 57 31 353 341 20 358 339 324 351 15 7
22 10 357 338 333 324 322 321 319 305 306 313 340 347 342 345 358 349 356 352 352 353 30 49 54 49 44 7 358 345 156 150 87 72 41 23 15 351 357 171 48 34 16
22 8 355 336 325 333 318 313 323 314 315 357 347 352 350 329 13 360 6 4 10 14 38 52 50 39 56 14 7 11 59 46 117 87 54 35 18 6 2 24 47 38 17
16 1 342 323 332 335 321 305 322 334 346 334 337 6 354 339 24 17 12 10 16 25 34 46 40 67 37 39 22 16 19 0 32 51 53 37 21 17 11 26 34 46 31
12 348 334 342 315 306 296 333 358 9 344 352 346 12 5 23 26 19 15 13 358 37 36 28 4 46 69 32 34 19 22 7 53 56 48 63 23 19 22 24 59 50 53
351 322 335 328 303 334 347 6 358 344 335 0 350 346 1 28 53 37 33 18 0 7 24 16 27 21 342 29 26 12 17 39 57 47 72 64 33 25 18 25 50 49 60
328 329 314 311 345 350 314 350 7 15 11 2 339 344 57 33 41 27 40 31 10 9 26 28 20 1 8 10 359 359 13 69 80 100 69 61 48 35 34 41 45 43 50
326 289 294 13 341 305 330 351 46 18 359 347 319 339 45 67 70 55 29 51 46 38 35 18 2 357 355 355 348 9 16 13 33 65 56 48 45 41 39 47 45 31 53
253 290 340 315 322 15 332 316 84 343 332 293 357 11 36 47 56 110 78 54 45 58 43 27 20 346 1 345 359 7 32 55 54 60 56 62 49 48 47 55 57 53 63